Cloud_Cover
100 100 100 100 96 93 100 100 100 100 97 6 68 82 99 100 72 4 0 0 0 0 0 0 0 0 0 0 0 0 0 0
100 100 100 100 87 100 100 100 100 100 86 57 100 97 90 23 2 0 0 0 0 0 0 0 0 0 0 0 0 0 0 0
100 100 99 100 100 100 100 100 99 82 100 100 100 98 14 5 1 0 0 0 0 0 0 0 0 0 0 0 0 0 0 0
100 100 100 100 100 100 100 46 100 100 100 100 29 19 0 0 0 0 0 0 0 0 0 0 0 0 0 0 0 0 0 0
97 91 100 100 100 100 100 100 100 100 100 88 16 4 0 0 0 0 0 0 0 0 0 0 0 0 0 0 0 0 0 0
100 100 100 100 100 100 100 100 100 100 28 6 4 2 5 0 4 0 0 0 0 0 0 0 0 0 0 5 3 4 1 0
100 100 100 100 100 100 91 90 35 27 31 10 30 72 93 5 1 0 0 0 0 0 0 0 0 0 0 3 5 4 5 5
100 100 100 97 29 8 41 5 72 92 91 91 49 82 88 80 49 0 0 3 4 1 0 0 4 2 0 5 5 5 3 2
100 100 32 5 5 56 66 98 100 100 100 100 100 21 5 1 2 0 0 5 0 5 5 5 5 5 5 5 5 5 5 5
74 12 4 5 68 91 100 100 89 26 80 78 27 5 5 0 0 2 5 5 5 5 5 5 5 5 5 5 5 5 5 5
28 9 28 97 100 100 100 100 50 4 1 1 5 5 0 0 2 1 3 8 12 48 5 5 5 4 5 5 8 29 5 7
5 95 100 100 100 100 100 100 99 12 5 5 10 92 100 100 88 98 100 100 72 5 5 5 2 2 5 7 8 12 36 71
98 100 100 100 100 100 100 92 13 5 65 99 100 100 100 100 100 62 5 5 5 71 35 5 5 42 99 100 100 100 100 100
71 43 41 43 99 97 37 5 5 5 5 4 1 2 3 0 1 16 43 86 97 55 3 5 5 5 5 5 19 69 13 19
2 58 66 45 4 5 4 5 5 2 1 5 5 3 3 2 1 0 1 2 0 0 0 0 0 0 0 2 4 3 5 5
5 0 0 1 4 1 1 1 8 15 18 35 8 5 1 4 5 4 1 0 0 2 4 4 5 4 2 5 5 7 5 54
64 19 76 92 98 41 90 82 95 100 99 94 96 93 99 100 96 58 8 64 95 100 91 7 6 6 5 8 7 5 5 91
77 99 86 38 6 51 74 98 95 100 100 100 100 100 99 80 98 100 100 86 20 5 5 3 5 10 58 86 100 100 100 100
100 88 45 14 99 100 100 100 100 96 36 43 96 100 99 80 98 39 7 19 5 5 5 5 5 8 5 18 19 7 42 88
97 44 29 100 100 100 100 100 99 99 100 100 100 38 5 5 5 5 2 2 4 6 26 5 5 6 19 84 94 97 100 96